Powrót do katalogu

METEOR 2-6 DEB

AktywnyPO
NORAD 45502·DEBRIS·🇷🇺 Russia

Wystrzelony Sep 9, 1980 z Plesetsk Cosmodrome

Loading…

Następne Przeloty (najbliższe 24 godziny)

TLE

Starzejące sięSource: Space-Track

Epoka: Sep 6, 2026, 20:57 UTC

1 45502U 80073W   26249.87314588  .00001518  00000-0  50155-3 0  9995
2 45502  81.2085 308.5204 0041115  59.0987 301.4231 14.37144075612395

Śledź METEOR 2-6 DEB w czasie rzeczywistym z AllMySat

Download on the App Store